Aduana, Mexico

2:35 PM on February 23, 2017 (GMT +0000)
Cancun International

Weather History for MMUN - November, 2013

Change the Weather History Date:

Sunday, November 17, 2013

  Actual Average Record
Temperature  
Mean Temperature 78 °F -  
Max Temperature 84 °F 82 °F 87 °F (2004)
Min Temperature 73 °F 66 °F 55 °F (1999)
Cooling Degree Days 14    
Growing Degree Days 28 (Base 50)    
Moisture  
Dew Point 76 °F    
Average Humidity 89    
Maximum Humidity 100    
Minimum Humidity 79    
Precipitation  
Precipitation 0.20 in - - ()
Sea Level Pressure  
Sea Level Pressure 29.95 in    
Wind  
Wind Speed 3 mph ()    
Max Wind Speed 10 mph    
Max Gust Speed -    
Visibility 7.0 miles    
Events      
Averages and records for this station are not official NWS values.
T = Trace of Precipitation, MM = Missing Value Source: Averaged Metar Reports

Daily Weather History Graph

Daily Weather History Graph

Search for Another Location

Airport or City:

Trip Planner

Search our weather history database for the weather conditions in past years. The results will help you decide how hot, cold, wet, or windy it might be!

Date:

Astronomy

Nov. 17, 2013 Rise Set
Actual Time 5:59 AM CST 5:05 PM CST
Civil Twilight 5:35 AM CST 5:29 PM CST
Nautical Twilight 5:08 AM CST 5:55 PM CST
Astronomical Twilight 4:42 AM CST 6:22 PM CST
Moon 5:21 PM CST (11/17) 5:54 AM CST (11/17)
Length of Visible Light 11h 53m
Length of Day
11h 06m
Full, 100% of the Moon is Illuminated
Nov 17
Full
Nov 25
Last Quarter
Dec 2
New
Dec 9
First Quarter
Dec 17
Full

Hourly Weather History & Observations

Time (CST) Temp. Heat Index Dew Point Humidity Pressure Visibility Wind Dir Wind Speed Gust Speed Precip Events Conditions
12:42 AM 77.0 °F - 75.2 °F 94% 29.95 in 7.0 mi ENE 2.3 mph - N/A   Scattered Clouds
1:40 AM 77.0 °F - 75.2 °F 94% 29.93 in 7.0 mi ENE 3.5 mph - N/A   Scattered Clouds
2:42 AM 77.0 °F - 75.2 °F 94% 29.92 in 7.0 mi East 2.3 mph - N/A   Scattered Clouds
3:41 AM 77.0 °F - 75.2 °F 94% 29.92 in 7.0 mi Calm Calm - N/A   Partly Cloudy
4:40 AM 73.4 °F - 73.4 °F 100% 29.93 in 7.0 mi Calm Calm - N/A   Scattered Clouds
5:46 AM 73.4 °F - 73.4 °F 100% 29.94 in 7.0 mi Calm Calm - N/A   Scattered Clouds
6:46 AM 77.0 °F - 77.0 °F 100% 29.96 in 7.0 mi ENE 2.3 mph - N/A   Scattered Clouds
7:40 AM 82.4 °F 90.9 °F 77.0 °F 84% 29.97 in 7.0 mi East 5.8 mph - N/A   Scattered Clouds
8:41 AM 82.4 °F 90.9 °F 77.0 °F 84% 29.99 in 7.0 mi East 4.6 mph - N/A   Mostly Cloudy
9:40 AM 84.2 °F 94.1 °F 77.0 °F 79% 30.00 in 7.0 mi East 8.1 mph - N/A   Mostly Cloudy
10:44 AM 82.4 °F 92.4 °F 78.8 °F 89% 29.99 in 7.0 mi ESE 6.9 mph - N/A   Mostly Cloudy
11:40 AM 84.2 °F 94.1 °F 77.0 °F 79% 29.97 in 7.0 mi ESE 10.4 mph - N/A   Scattered Clouds
12:40 PM 82.4 °F 89.5 °F 75.2 °F 79% 29.93 in 7.0 mi ESE 8.1 mph - N/A   Mostly Cloudy
1:40 PM 84.2 °F 94.1 °F 77.0 °F 79% 29.92 in 7.0 mi East 6.9 mph - N/A   Mostly Cloudy
2:42 PM 82.4 °F 90.9 °F 77.0 °F 84% 29.91 in 7.0 mi ESE 8.1 mph - N/A   Mostly Cloudy
3:44 PM 82.4 °F 89.5 °F 75.2 °F 79% 29.91 in 7.0 mi East 8.1 mph - N/A   Scattered Clouds
4:44 PM 82.4 °F 90.9 °F 77.0 °F 84% 29.92 in 7.0 mi ENE 2.3 mph - N/A   Scattered Clouds
5:43 PM 80.6 °F 87.1 °F 77.0 °F 89% 29.95 in 7.0 mi ENE 2.3 mph - N/A   Scattered Clouds
6:42 PM 78.8 °F - 75.2 °F 89% 29.95 in 7.0 mi ENE 3.5 mph - N/A   Partly Cloudy
7:46 PM 78.8 °F - 75.2 °F 89% 29.96 in 7.0 mi ENE 3.5 mph - N/A   Partly Cloudy
8:40 PM 78.8 °F - 77.0 °F 94% 29.97 in 7.0 mi East 5.8 mph - N/A   Clear
9:42 PM 78.8 °F - 77.0 °F 94% 29.97 in 7.0 mi East 3.5 mph - N/A   Partly Cloudy
10:43 PM 78.8 °F - 77.0 °F 94% 29.97 in 7.0 mi East 2.3 mph - N/A   Partly Cloudy
11:41 PM 78.8 °F - 77.0 °F 94% 29.96 in 7.0 mi East 2.3 mph - N/A   Partly Cloudy